Regional Weather Roundup
Issued by NWS

Home | Current Version | Previous Version | Graphics & Text | Print | Product List | Glossary On
Versions: 1 2 3 4 5 6 7 8 9 10 11 12 13 14 15 16 17 18 19 20 21 22 23 24 25 26 27 28 29 30 31 32 33 34 35 36 37 38 39 40 41 42 43 44 45 46 47 48 49 50
000
ASUS45 KCYS 092310
RWRWY

WYOMING REGIONAL WEATHER ROUNDUP
NATIONAL WEATHER SERVICE CHEYENNE WY
500 PM MDT WED JUL 09 2014

NOTE:  "FAIR" INDICATES FEW OR NO CLOUDS BELOW 12,000 FEET
WITH NO SIGNIFICANT WEATHER AND/OR OBSTRUCTIONS TO VISIBILITY.

WYZ001-100000-
YELLOWSTONE NATIONAL PARK

CITY           SKY/WX    TMP DP  RH WIND       PRES   REMARKS
LK YELLOWSTONE   N/A     75  42  30 VRB5      30.22F
W YELLOWSTONE  NOT AVBL

$$
WYZ002>013-054>058-071-098>099-100000-
NORTHERN WYOMING

CITY           SKY/WX    TMP DP  RH WIND       PRES   REMARKS
JACKSON        SUNNY     84  36  17 CALM      30.08F
CODY           NOT AVBL
GREYBULL       MOSUNNY   95  38  13 W6        29.84F HX  90
WORLAND        SUNNY     92  49  22 N8        29.85F
SHERIDAN       PTSUNNY   89  49  25 SE9       29.91F
BUFFALO        MOSUNNY   86  48  26 S6        29.99F
GILLETTE       SUNNY     87  48  25 E3        29.96F
HULETT         FAIR      81  52  36 MISG      30.00
NEWCASTLE      FAIR      84  46  26 S5        29.97

$$
WYZ014>020-022>026-101>103-100000-
CENTRAL WYOMING

CITY           SKY/WX    TMP DP  RH WIND       PRES   REMARKS
BIG PINEY      MOSUNNY   84  39  20 NW8       30.13F
PINEDALE       PTCLDY    86  34  15 NW13G20   30.14F
DUBOIS         FAIR      84  27  12 N18       30.11F
LANDER         SUNNY     96  27   8 VRB3      29.93F HX  90
RIVERTON       SUNNY     94  29  10 S12       29.95F
CASPER         MOSUNNY   92  38  15 VRB6      29.97F
DOUGLAS        SUNNY     91  43  18 VRB3      29.98F

$$
WYZ021-027>030-104>119-100000-
SOUTHERN WYOMING

CITY           SKY/WX    TMP DP  RH WIND       PRES   REMARKS
EVANSTON       MOSUNNY   86  40  19 W17G23    30.16F
KEMMERER       MOCLDY    84  32  15 W8        30.18F
FORT BRIDGER   CLOUDY    77  42  28 SE10      30.20S
ROCK SPRINGS   MOSUNNY   88  33  14 W14G20    30.08F
DIXON          FAIR      90  34  13 SW18G28   30.11F
RAWLINS        SUNNY     90  19   7 W9G24     30.08F
SARATOGA       FAIR      88  28  11 NW9       30.11F
LARAMIE        PTSUNNY   87  30  13 NW10G18   30.13F
CHEYENNE       MOSUNNY   84  52  33 S9        30.08F
TORRINGTON     SUNNY     93  48  21 E9        29.92F

$$



USA.gov is the U.S. government's official web portal to all federal, state and local government web resources and services.